DW5244 Weather Reports


time (UTC)temp
F
wind
direction
speed
knots
gust
knots
rain 1hr
in
rain 24hr
in
rain mn
in
humidity
%
barometer
mb
20260903013005 81 330 7.0 9.6 0.00 0.13 0.00 50 1014.2
20260903011503 81 355 8.7 10.4 0.00 0.13 0.00 48 1014.0
20260903010002 81 360 7.8 10.4 0.00 0.13 0.00 48 1014.1
20260903004559 81 355 7.0 12.2 0.00 0.13 0.00 49 1014.2
20260903003056 80 346 7.0 11.3 0.00 0.13 0.00 54 1014.5
20260903001553 79 360 7.0 13.0 0.00 0.13 0.00 55 1014.8
20260903000051 78 9 6.1 12.2 0.00 0.13 0.00 63 1014.9
20260902234559 79 321 11.3 14.8 0.00 0.13 0.00 59 1014.8
20260902233045 80 355 11.3 20.9 0.00 0.13 0.00 54 1015.2
20260902230048 80 347 18.2 24.3 0.13 0.13 0.13 60 1014.2
20260902224544 77 355 17.4 23.5 0.11 0.11 0.11 70 1014.1
20260902223042 80 150 3.5 12.2 0.08 0.08 0.08 62 1014.1
20260902221541 84 179 13.0 30.4 0.04 0.04 0.04 51 1014.4
20260902220042 96 210 0.9 3.5 0.00 0.00 0.00 29 1013.7
20260902214540 99 348 0.9 5.2 0.00 0.00 0.00 25 1013.8
20260902213037 98 360 1.7 8.7 0.00 0.00 0.00 26 1013.9
20260902211535 100 267 5.2 10.4 0.00 0.00 0.00 24 1014.1
20260902210032 102 235 1.7 7.8 0.00 0.00 0.00 24 1014.4
20260902204528 99 360 5.2 7.8 0.00 0.00 0.00 27 1014.7
20260902203026 98 360 7.0 11.3 0.00 0.00 0.00 27 1015.0
20260902201524 98 334 4.3 7.0 0.00 0.00 0.00 26 1015.3
20260902200020 98 264 3.5 12.2 0.00 0.00 0.00 27 1015.6
20260902194523 97 340 5.2 9.6 0.00 0.00 0.00 28 1015.6
20260902193016 97 360 4.3 7.8 0.00 0.00 0.00 27 1015.9
20260902191516 97 302 5.2 8.7 0.00 0.00 0.00 28 1016.2
20260902190011 94 223 0.9 5.2 0.00 0.00 0.00 31 1016.5
20260902184510 95 305 5.2 8.7 0.00 0.00 0.00 29 1016.7
20260902183006 95 288 4.3 8.7 0.00 0.00 0.00 29 1017.0
20260902181503 93 331 2.6 7.8 0.00 0.00 0.00 31 1017.3
20260902180101 92 180 3.5 10.4 0.00 0.00 0.00 35 1017.5
20260902174557 95 360 1.7 7.8 0.00 0.00 0.00 31 1017.7
20260902173052 93 360 5.2 10.4 0.00 0.00 0.00 33 1017.9
20260902171603 91 173 1.7 7.0 0.00 0.00 0.00 38 1018.2
20260902170047 91 360 2.6 7.0 0.00 0.00 0.00 38 1018.4
20260902164542 88 261 0.9 7.0 0.00 0.00 0.00 39 1018.3
20260902163037 88 311 1.7 3.5 0.00 0.00 0.00 43 1018.4
20260902161532 87 292 1.7 5.2 0.00 0.00 0.00 40 1018.5
20260902160028 85 244 1.7 6.1 0.00 0.00 0.00 42 1018.5
20260902154527 83 147 0.0 3.5 0.00 0.00 0.00 48 1018.6
20260902153020 83 88 1.7 3.5 0.00 0.00 0.00 47 1018.7
20260902151516 81 26 4.3 7.8 0.00 0.00 0.00 55 1018.7
20260902150016 79 360 7.0 9.6 0.00 0.00 0.00 58 1018.7
20260902144512 78 360 6.1 8.7 0.00 0.00 0.00 59 1018.7
20260902143009 78 360 5.2 8.7 0.00 0.00 0.00 60 1018.7
20260902141507 77 360 5.2 9.6 0.00 0.00 0.00 63 1018.6
20260902140006 76 324 6.1 9.6 0.00 0.00 0.00 65 1018.5
20260902134502 75 360 5.2 7.8 0.00 0.00 0.00 67 1018.3
20260902133106 73 360 4.3 7.0 0.00 0.00 0.00 70 1018.2
20260902131554 72 343 3.5 7.0 0.00 0.00 0.00 72 1018.1
20260902130053 72 360 2.6 7.8 0.00 0.00 0.00 71 1017.9
20260902124549 72 335 5.2 9.6 0.00 0.00 0.00 71 1017.8
20260902123050 72 329 3.5 4.3 0.00 0.00 0.00 70 1017.7
20260902121545 73 360 3.5 7.8 0.00 0.00 0.00 70 1017.7
20260902120047 72 317 3.5 4.3 0.00 0.00 0.00 70 1017.7
20260902114552 73 341 3.5 8.7 0.00 0.00 0.00 70 1017.6
20260902113042 72 329 6.1 9.6 0.00 0.00 0.00 70 1017.5
20260902111546 72 313 4.3 7.8 0.00 0.00 0.00 71 1017.5
20260902110056 72 321 1.7 7.0 0.00 0.00 0.00 70 1017.5
20260902104539 73 339 2.6 7.0 0.00 0.00 0.00 69 1017.5
20260902103040 72 360 3.5 8.7 0.00 0.00 0.00 68 1017.3
20260902101540 72 315 2.6 7.0 0.00 0.00 0.00 68 1017.4
20260902100037 72 360 4.3 8.7 0.00 0.00 0.00 69 1017.4
20260902094542 73 360 5.2 8.7 0.00 0.00 0.00 69 1017.4
20260902093032 73 360 5.2 7.8 0.00 0.00 0.00 67 1017.3
20260902091530 74 360 4.3 7.8 0.00 0.00 0.00 66 1017.4
20260902090029 74 338 5.2 9.6 0.00 0.00 0.00 64 1017.3
20260902084538 74 360 7.0 10.4 0.00 0.00 0.00 66 1017.2
20260902083027 74 360 9.6 12.2 0.00 0.00 0.00 66 1017.3
20260902081526 74 360 7.8 13.0 0.00 0.00 0.00 65 1017.3
20260902080024 75 360 7.0 9.6 0.00 0.00 0.00 65 1017.2
20260902074522 75 360 4.3 8.7 0.00 0.00 0.00 63 1017.3
20260902073021 75 360 7.0 11.3 0.00 0.00 0.00 63 1017.3
20260902071529 75 360 5.2 10.4 0.00 0.00 0.00 64 1017.4
20260902070015 76 360 6.1 11.3 0.00 0.00 0.00 60 1017.4
20260902064514 77 360 7.0 10.4 0.00 0.00 0.00 57 1017.4
20260902063023 77 360 6.1 8.7 0.00 0.00 0.00 57 1017.4
20260902061510 78 360 1.7 7.8 0.00 0.00 0.00 55 1017.4
20260902060006 78 360 5.2 9.6 0.00 0.00 0.00 54 1017.6
20260902054510 78 360 3.5 7.0 0.00 0.00 0.00 53 1017.5
20260902053009 78 360 2.6 5.2 0.00 0.00 0.00 54 1017.4
20260902051501 78 360 5.2 7.8 0.00 0.00 0.00 53 1017.3
20260902050101 78 360 5.2 8.7 0.00 0.00 0.00 52 1017.4
20260902044558 79 360 4.3 8.7 0.00 0.00 0.00 52 1017.4
20260902043103 79 348 3.5 7.8 0.00 0.00 0.00 51 1017.2
20260902041555 79 360 0.9 4.3 0.00 0.00 0.00 50 1017.3
20260902040055 80 360 5.2 10.4 0.00 0.00 0.00 49 1017.1
20260902034554 81 360 3.5 11.3 0.00 0.00 0.00 47 1017.1
20260902033154 81 360 5.2 8.7 0.00 0.00 0.00 45 1016.8
20260902031553 82 360 9.6 15.6 0.00 0.00 0.00 44 1016.4
20260902030053 82 360 9.6 19.1 0.00 0.00 0.00 45 1016.1
20260902024552 82 360 10.4 18.2 0.00 0.00 0.00 44 1015.8
20260902023054 81 360 7.8 13.9 0.00 0.00 0.00 41 1015.6
20260902021557 81 360 9.6 13.9 0.00 0.00 0.00 49 1015.2
20260902020051 81 360 11.3 16.5 0.00 0.00 0.00 45 1015.0
20260902014550 80 360 9.6 16.5 0.00 0.00 0.00 47 1014.9